Погода Грозный

Погода Грозный : погода сейчас, прогноз погоды и архив. Всё, что Вы хотите узнать о погоде Грозный!

Поиск расширенной информации на нашем сайте:

Другие новости

Новости СМИ2

Главная страница сайта

Новости сайта

03.07.2017

Напоминаем, что на нашем специализированном сайте Метеоцентр.Азия вы можете получить высокодетализированные автоматические прогнозы погоды по пунктам России, СНГ и мира в авиационном формате (включающие направление и скорость ветра, видимость, явления погоды, количество и форму облачности, нижнюю и верхнюю границу облачности).

Рекомендуем: Наружные отопительные котлы - газовые котлы будерус.

Погода Грозный - сегодня

Время (UTC), дата Ветер
(°,м/с) 
Видим.   Явления Облачность Т
(°С)
Тd
(°С)
f(%) Тe
(°С)
Pmin
(гПа)
dP
(гПа)
Po
(мм)
O2
(г/м3)
Тmin Tmax R s Состояние
почвы
21 20.02.18 090 (В) 4000 м  слаб. морось  10/10 300 м 
[St]
+2.3 +1.8 96 +3  1020.9  -0.3  742  296           
00 21.02.18 040 (СВ) 4000 м  дымка{морось}  10/10 300 м 
[St]
+2.2 +1.7 96 +3  1020.9  742  296           
03 21.02.18 080 (В) 4000 м  дымка  10/10 300 м 
[St]
+1.7 +1.2 96 +1  1021.4  0.1  742  297  +1.4    0.5     
06 21.02.18 080 (В) 0500 м  туман  ?/?  
+1.3 +1 98 +2  1021.7  0.6  742  298  +0.9         
09 21.02.18 100 (В) 4000 м  в посл. час туман  10/10 300 м 
[St]
+2.2 +1.7 96 +2  1021.5  -0.5  742  296           
12 21.02.18 090 (В) 10 км    10/10 600 м 
[Sc]
+2.6 +1.6 93 +3  1020.5  -0.8  741  296           
15 21.02.18 090 (В) 10 км    10/10 600 м 
[Sc]
+3.1 +1.6 90 +4  1020.4  -0.1  741  295    +3.6       
18 21.02.18 090 (В) 4000 м  дымка  10/10 300 м 
[St]
+2.8 +2 94 +1  1020.2  0.1  741  295           
21 21.02.18 090 (В) 4000 м  дымка  10/10 200 м 
[St]
+2.5 +2 96 +1  1019.3  -0.9  741  295           
00 22.02.18 080 (В) 0500 м  туман  ?/?  
+2.2 +1.9 98 +1  1019.1  -0.6  740  296           
03 22.02.18 070 (В) 0500 м  слаб. морось{туман}  ?/?  
+2.3 +2 98 +3  1018.5  -0.6  740  295  +1.7    0.4     
06 22.02.18 090 (В) 4000 м  слаб. морось{туман}  10/10 300 м 
[St]
+2.4 +2.1 98 +2  1018.2  0.2  740  295           
09 22.02.18 080 (В) 20000 м  {морось}  10/10 1000 м 
[Sc]
+2.6 +1.3 91 +2  1017.7  -0.8  739  295           
12 22.02.18 080 (В) 4000 м  слаб. морось  10/10 300 м 
[St]
+3.1 +2.3 94 +4  1017.2  -0.5  739  294           
15 22.02.18 100 (В) 4000 м  слаб. морось  10/10 300 м 
[St]
+3.1 +2.9 99 +3  1017.9  0.7  740  294    +3.8     
18 22.02.18 100 (В) 0500 м  слаб. морось{туман}  ?/?  
+2.5 +2.5 100 +2  1018  0.4  740  295           
21 22.02.18 110 (В) 0200 м  туман{морось}  ?/?  
+1.9 +1.9 100 +3  1017.8  -0.3  740  296           
00 23.02.18 080 (В) 0200 м  туман  ?/?  
+1.4 +1.4 100 +2  1017.7  -0.6  739  296           
03 23.02.18 100 (В) 0200 м  туман  ?/?  
+0.9 +0.9 100 +2  1017.6  -0.1  739  297  +0.6    0.6     
06 23.02.18 100 (В) 0200 м  туман  ?/?  
+1.4 +1.4 100 +1  1017.2  739  296           
09 23.02.18 080 (В) 0200 м  туман  ?/?  
+2.1 +2.1 100 +1  1016.2  -1.2  738  295           
12 23.02.18 080 (В) 0200 м  туман  ?/?  
+2.4 +2.4 100 +3  1015.1  -1.1  737  294           
15 23.02.18 110 (В) 0200 м  туман  ?/?  
+2.6 +2.6 100 +3  1014.4  -0.6  737  294    +3       
18 23.02.18 тихо ()   4000 м  дымка{туман}  10/10 200 м 
[St]
+2.6 +2.3 98 +3  1013.8  -0.5  737  294           
21 23.02.18 тихо ()   4000 м  дымка  10/10 200 м 
[St]
+2.8 +2.5 98 +3  1011.5  -1.8  735  293           
Время (UTC), дата Ветер
(°,м/с) 
Видим.   Явления Облачность Т
(°С)
Тd
(°С)
f(%) Тe
(°С)
Pmin
(гПа)
dP
(гПа)
Po
(мм)
O2
(г/м3)
Тmin Tmax R s Состояние
почвы

Для получения пояснительной информации подведите курсор к названию столбца.

ПОГОДА Грозный - архив

Всё, что Вы хотите узнать о погоде Грозный - удобно и подробно!

Выберите нужную дату (начиная с 1 января 2015* года) и нажмите кнопку "Найти".
Будут отображены архивные сводки погоды по пункту Грозный, начиная с указанной даты.


Отображать данные в формате CSV (для использования в таблицах Excel)


Внимание! Наш архив погоды предназначен исключительно для личного некоммерческого использования в познавательных целях. Если Вам необходимы официальные справки о состоянии погоды (для производственных, юридических, коммерческих и т.п. целей), обращайтесь в органы Росгидромета.

*Примечание: данная дата относится к архиву по метеостанциям СССР (Россия, СНГ, Балтия).
Архив по метеостанциям Зарубежной Европы и Азии (кроме Китая) хранится 10 дней, по другим регионам земного шара (Китай, Африка, Америка, Австралия, Океания) - 1 день.

Грозный - район местоположения метеостанции


Название, широта, долгота, высота метеостанции:
Грозный 43.3°ш. 45.7°д. 163 м над ур. моря [Российская Федерация]

Дополнительная информация

В oтличие oт бoльшинства пoгoдных сайтoв мы публикуем пoдрoбную метеoинфoрмацию в детальнoм прoфессиoнальнoм фoрмате.

Характеристики температуры и влажнoсти вoздуха измеряются на высoте 2 м в тени вдали oт зданий и деревьев.
Скoрoсть ветра измеряется на высoте 10 м (на урoвне рoста челoвека скoрoсть ветра ниже в 1.5-2 раза). Если метеoстанция нахoдится в гoрoде или в лесу, тo скoрoсть ветра занижена на 2-4 м/с пo сравнению с oткрытым местoм. Скoрoсть ветра над акватoриями крупных рек и oзёр, а также на вершинах хoлмoв на 2-5 м/с выше, чем в oбычных услoвиях.
Атмoсфернoе давление в разных тoчках местнoсти мoжет значительнo oтличаться oт давления на метеoстанции, в зависимoсти oт услoвий рельефа (при пoдъёме на 10 м давление пoнижается примернo на 1 мм рт.ст.).